OpenBCM V1.08-5-g2f4a (Linux)

Packet Radio Mailbox

IZ3LSV

[San Dona' di P. JN]

 Login: GUEST





  
I0OJJ  > KEPS     25.03.25 02:25l 325 Lines 15447 Bytes #5 (0) @ AMSAT
BID : ORB25084.1
Read: GUEST
Subj: 2Line Orbital Elements 25084.AMSAT
Path: IZ3LSV<I0OJJ
Sent: 250325/0025z @:I0OJJ.ITA.EU [Rome] obcm1.08-6-g5b69
From: I0OJJ @ I0OJJ.ITA.EU (Gustavo)
To:   KEPS @ AMSAT
X-Info: This message was generated automatically


QST de W1STR

AMSAT Orbital Elements for Amateur Satellites in TLE Format
From Orbital Analysis Office
New England Sci-Tech STEM Education Center
Natick, MA March 25, 2025
To all radio amateurs


These element sets describe the orbits of various satellites 
in use by the amateur radio community. For details see:
www.amsat.org/keplerian-elements-formats/

A daily update of element sets is available at:
www.amsat.org/tle/daily-bulletin.txt
or without bulletin text:
www.amsat.org/tle/dailytle.txt


AO-07
1 07530U 74089B   25083.42709852 -.00000011  00000-0  22063-3 0  9997
2 07530 101.9954  86.8651 0011882 269.3878 269.6614 12.53687487304151
UO-11
1 14781U 84021B   25083.60131287  .00005079  00000-0  54530-3 0  9993
2 14781  97.7458  51.5489 0006468 221.6105 138.4621 14.89001517190186
AO-27
1 22825U 93061C   25083.43288041  .00000478  00000-0  19974-3 0  9998
2 22825  98.7457 144.5742 0007989 346.6641  13.4328 14.30758440642684
FO-29
1 24278U 96046B   25083.63741037 -.00000005  00000-0  30964-4 0  9999
2 24278  98.5837 347.6327 0349920 181.7535 178.2403 13.53241472412367
NOAA-15
1 25338U 98030A   25083.82046213  .00000640  00000-0  28114-3 0  9994
2 25338  98.5439 110.7715 0009579 218.6216 141.4281 14.26921508397456
GO-32
1 25397U 98043D   25083.90941987  .00000427  00000-0  20507-3 0  9995
2 25397  98.9639  61.4565 0002364  78.4731 281.6712 14.24281248387599
ISS
1 25544U 98067A   25083.46412242  .00032092  00000-0  56894-3 0  9994
2 25544  51.6369   6.6558 0003751  45.6743 314.4553 15.49949526502025
NO-44
1 26931U 01043C   25083.38348224  .00000724  00000-0  30239-3 0  9994
2 26931  67.0521 327.4268 0005610 267.8722  92.1738 14.31670354226051
SO-50
1 27607U 02058C   25083.39620438  .00005352  00000-0  68996-3 0  9996
2 27607  64.5532  78.7274 0047397 352.7327   7.3085 14.81225342197791
CO-55
1 27844U 03031E   25082.96491063  .00001374  00000-0  61833-3 0  9996
2 27844  98.6795  92.2333 0010651  57.2287 302.9916 14.23895283127620
CO-57
1 27848U 03031J   25082.94767139  .00001153  00000-0  52835-3 0  9995
2 27848  98.6820  92.2798 0010699  72.4870 287.7476 14.23244323127373
RS-22
1 27939U 03042A   25083.88422858  .00004361  00000-0  70206-3 0  9994
2 27939  98.3200 251.5237 0010553 250.6234 247.1531 14.72019218149546
NOAA-18
1 28654U 05018A   25083.82412062  .00000630  00000-0  35747-3 0  9990
2 28654  98.8450 164.1583 0013752 351.6168   8.4773 14.13554617 22906
CO-58
1 28895U 05043F   25083.37290151  .00005663  00000-0  93937-3 0  9994
2 28895  98.2354 226.8320 0014833 188.0989 171.9980 14.70534910 35591
CO-65
1 32785U 08021C   25083.89092875  .00014904  00000-0  11044-2 0  9992
2 32785  97.7775  54.5839 0012625 106.6672 253.5940 15.03150401917620
AAUSAT2
1 32788U 08021F   25083.55870613  .00223491  00000-0  27388-2 0  9993
2 32788  97.6056  77.5147 0005122 130.3515 229.8189 15.59587745921379
CO-66
1 32791U 08021J   25083.42414861  .00028720  00000-0  15001-2 0  9999
2 32791  97.7225  61.9125 0006972  81.5113 278.6909 15.15841150918799
RS-30
1 32953U 08025A   25083.86623064  .00000053  00000-0  31127-3 0  9995
2 32953  82.4975 274.8989 0019057 211.0331 148.9625 12.43160653764002
NOAA-19
1 33591U 09005A   25083.81801005  .00000587  00000-0  33702-3 0  9994
2 33591  99.0052 148.0690 0013274 216.8461 143.1800 14.13320744831267
SRMSAT
1 37841U 11058D   25083.90737519  .00000809  00000-0  29635-3 0  9992
2 37841  19.9716 258.5194 0011715 301.8786 209.8816 14.11394575694485
ZACUBE-1
1 39417U 13066B   25083.60979359  .00014978  00000-0  13302-2 0  9996
2 39417  97.7709  41.1238 0043522 310.9556  48.7902 14.95507967613406
Delfi-N3xt
1 39428U 13066N   25083.48213188  .00017581  00000-0  18482-2 0  9992
2 39428  97.8361   2.0762 0085211 254.0640 105.1175 14.86813716607612
GOMX-1
1 39430U 13066Q   25083.84474000  .00006006  00000-0  93814-3 0  9990
2 39430  97.6953 307.1923 0134931  78.1145 283.5154 14.67175204604153
LO-74
1 39440U 13066AA  25083.82801679  .00012849  00000-0  13215-2 0  9993
2 39440  97.8423  29.0000 0065300  73.6489 287.1895 14.88856566611215
AO-73
1 39444U 13066AE  25083.44872966  .00019772  00000-0  15413-2 0  9996
2 39444  97.7629  45.2268 0039317 288.1393  71.5551 15.00603977612012
DTUSAT-2
1 40030U 14033W   25083.56456515  .00019353  00000-0  13076-2 0  9993
2 40030  98.0485  51.7777 0008151 335.7029  24.3811 15.06596303584791
EO-80
1 40032U 14033Y   25083.45586531  .00019367  00000-0  13059-2 0  9991
2 40032  98.0367  51.4250 0006651 259.5197 100.5280 15.06678713584756
LILACSAT-2
1 40908U 15049K   25083.82938789  .00026754  00000-0  75167-3 0  9995
2 40908  97.5140 102.4182 0011802  80.2496 280.0080 15.36434534526434
IO-86
1 40931U 15052B   25038.81889873  .00001817  00000-0  15548-3 0  9993
2 40931   6.0001 108.1159 0012838 187.7041 172.2889 14.78568669506492
Horyu-4
1 41340U 16012D   25083.61350830  .00043310  00000-0  13390-2 0  9995
2 41340  30.9972 287.9648 0008729 344.4333  15.6042 15.32252699500959
Lapan A3
1 41603U 16040E   25083.82553489  .00008698  00000-0  31023-3 0  9990
2 41603  97.1400  91.4749 0011375 173.0094 187.1308 15.29055548486057
CAS-2T
1 41847U 16066G   25083.24910959  .00003738  00000-0  53750-3 0  9994
2 41847  98.4249 158.3778 0347971  52.5481 310.6831 14.43213460439867
CAS-4B
1 42759U 17034B   25083.86940830  .00088644  00000-0  13937-2 0  9993
2 42759  43.0101  55.6056 0016199 117.3382 242.9130 15.52484159430637
CAS-4A
1 42761U 17034D   25083.82110688  .00092699  00000-0  14222-2 0  9995
2 42761  43.0140  53.6640 0017618 122.3769 237.8800 15.53113698430648
TechnoSat
1 42829U 17042E   25083.73462007  .00009725  00000-0  76587-3 0  9995
2 42829  97.3910 256.1305 0013188 176.2844 183.8481 15.00922215419195
AO-91
1 43017U 17073E   25083.41571466  .00018542  00000-0  97215-3 0  9992
2 43017  97.5383 316.1749 0179788  69.3897 292.6509 15.02842898397611
S-Net D
1 43186U 18014G   25083.29977181  .00011594  00000-0  70385-3 0  9994
2 43186  97.5687 347.0259 0010893 123.9427 236.2840 15.10619674390709
S-Net B
1 43187U 18014H   25083.30421930  .00011473  00000-0  69672-3 0  9996
2 43187  97.5692 346.9982 0011753 119.9312 240.3087 15.10602913390708
S-Net A
1 43188U 18014J   25083.30041962  .00011391  00000-0  69139-3 0  9997
2 43188  97.5701 347.1348 0011561 120.7894 239.4475 15.10623729390709
S-Net C
1 43189U 18014K   25083.30645449  .00011540  00000-0  70049-3 0  9996
2 43189  97.5717 347.1417 0013349 114.8122 245.4498 15.10599274389255
Ten-Koh
1 43677U 18084G   25083.36551792  .00007649  00000-0  61992-3 0  9990
2 43677  98.0967 252.5419 0010527 164.6870 195.4672 14.99957265348661
PO-101
1 43678U 18084H   25083.84437382  .00007230  00000-0  62088-3 0  9995
2 43678  98.0996 257.0843 0008350 173.0898 187.0439 14.97754449348890
QO-100
1 43700U 18090A   25083.58447556  .00000144  00000-0  00000+0 0  9992
2 43700   0.0151 193.7436 0001466 203.4733  21.2952  1.00270572 23410
MinXSS-2
1 43758U 18099A   25082.93126676  .00034424  00000-0  14890-2 0  9992
2 43758  97.5109 148.8577 0013297  73.9538 286.3161 15.22285689345149
AO-95
1 43770U 18099N   25083.11163239  .00025080  00000-0  13353-2 0  9994
2 43770  97.5017 142.1176 0012437 120.7676 239.4782 15.15144077344810
RANGE-A
1 43773U 18099R   25083.59540786  .00012351  00000-0  80432-3 0  9995
2 43773  97.4600 134.2387 0013421  97.2160 263.0595 15.08002300344613
MOVE-II
1 43780U 18099Y   25082.75929152  .00139921  00000-0  24813-2 0  9991
2 43780  97.4743 154.1028 0002297 105.7389 254.4115 15.49730538345652
SNUSat 2
1 43782U 18099AA  25083.40496431  .00017331  00000-0  98544-3 0  9998
2 43782  97.4707 139.7681 0013627  66.2527 294.0132 15.12862864344827
SnugLite
1 43784U 18099AC  25083.62008693  .00022237  00000-0  11757-2 0  9994
2 43784  97.4524 139.4018 0004784  77.8507 282.3261 15.15473418344972
ITASat 1
1 43786U 18099AE  25083.59562402  .00015932  00000-0  94138-3 0  9994
2 43786  97.4667 139.6778 0016411 112.1381 248.1593 15.11459241344826
EAGLET 1
1 43790U 18099AJ  25083.41267566  .00010689  00000-0  69564-3 0  9992
2 43790  97.4872 139.6863 0014050  95.2870 264.9962 15.08056700344437
ESEO
1 43792U 18099AL  25083.14503631  .00005688  00000-0  43572-3 0  9994
2 43792  97.4597 133.6905 0012458  69.4852 290.7709 15.02166175344198
CSIM
1 43793U 18099AM  25083.77053062  .00152574  00000-0  26247-2 0  9998
2 43793  97.4929 157.2445 0003679  37.2625 322.8881 15.50544392345659
JO-97
1 43803U 18099AX  25083.61525413  .00026069  00000-0  12700-2 0  9995
2 43803  97.4767 143.4676 0008690  63.3543 296.8580 15.18294758345086
Suomi 100
1 43804U 18099AY  25083.38277601  .00021009  00000-0  10847-2 0  9992
2 43804  97.4833 142.7321 0013705  61.6630 298.5984 15.16253648344998
ISAT
1 43879U 18111D   25083.68460914  .00042688  00000-0  16662-2 0  9990
2 43879  97.6000 356.5782 0012340 104.5953 255.6654 15.25709578339937
UWE-4
1 43880U 18111E   25083.02244754  .00033603  00000-0  14422-2 0  9991
2 43880  97.5938 354.8782 0015125 116.8570 243.4214 15.22533514341813
Sparrow
1 43881U 18111F   25083.26438634  .00040106  00000-0  15222-2 0  9995
2 43881  97.6131 358.7500 0009391 134.9613 225.2388 15.26686657341976
Prox-1
1 44339U 19036A   25083.63504646  .00023744  00000-0  32043-2 0  9998
2 44339  23.9960 206.4497 0006233 277.3591  82.6197 14.77624152306612
SONATE
1 44400U 19038Q   25083.50869178  .00136705  00000-0  12909-2 0  9990
2 44400  97.7044 101.7246 0010157 157.6034 202.5671 15.66526294317411
Taurus 1
1 44530U 19059C   25083.83070018  .00021278  00000-0  40418-2 0  9994
2 44530  98.5953 219.7055 0009782 264.9491  95.0594 14.64152147292704
